Regional Weather Roundup
Issued by NWS

Home | Current Version | Previous Version | Text Only | Print | Product List | Glossary On
Versions: 1 2 3 4 5 6 7 8 9 10 11 12 13 14 15 16 17 18 19 20 21 22 23 24 25 26 27
000
ASUS45 KBOU 241707
RWRCO

WEATHER ROUNDUP FOR COLORADO
NATIONAL WEATHER SERVICE DENVER/BOULDER CO
1100 AM MDT TUE MAY 24 2016

NOTE: "FAIR" INDICATES FEW OR NO CLOUDS BELOW 12000 FEET WITH NO
SIGNIFICANT WEATHER AND/OR OBSTRUCTIONS TO VISIBILITY.

COZ001>005-013-030-031-241800-
...NORTHWEST COLORADO...

CITY           SKY/WX    TMP DP  RH WIND       PRES   REMARKS
CRAIG          FAIR      62  32  32 MISG      29.92S
HAYDEN         FAIR      64  27  24 SW6       29.92F
MEEKER         FAIR      65  21  18 SW16      29.92F
MOUNT WERNER   NOT AVBL
STEAMBOAT SPGS FAIR      60  26  27 SW6       29.93F
WALDEN         FAIR      59  16  18 S15G22    30.02S
$$

COZ006>008-011-241800-
...WEST CENTRAL VALLEYS...

CITY           SKY/WX    TMP DP  RH WIND       PRES   REMARKS
GRAND JUNCTION FAIR      69  27  20 W8        29.87F
MONTROSE       FAIR      70  18  13 SW18G24   29.93F
EAGLE          SUNNY     61  21  21 CALM      29.97F
RIFLE          FAIR      66  25  21 W8        29.90F
DELTA          FAIR      71  16  12 S3        29.91F
NUCLA          FAIR      66  21  18 S12G24    30.00S
$$

COZ017>023-064>068-241800-
...SOUTHWEST COLORADO...

CITY           SKY/WX    TMP DP  RH WIND       PRES   REMARKS
DURANGO        FAIR      64  23  21 S12G20    30.05F
CORTEZ         FAIR      67  22  18 SW17      29.99F
PAGOSA SPRINGS FAIR      59  13  16 SW9       30.10F
TELLURIDE      FAIR      55  15  21 S9G22     30.10F
WOLF CREEK PAS FAIR      36  18  48 SW32G45   30.26S
$$

COZ009-010-012-014-032>034-037-058>063-241800-
...CENTRAL COLORADO...

CITY           SKY/WX    TMP DP  RH WIND       PRES   REMARKS
ASPEN          FAIR      62  17  17 SW9       29.99F
BUENA VISTA    FAIR      63  14  14 SE21      30.02F
COPPER MTN     NOT AVBL
BERTHOUD PASS  FAIR      36  28  75 SE17G24   30.24F
COTTONWOOD PAS FAIR      59  10  14 CALM      30.12F
GUNNISON       FAIR      57  21  24 W5        30.05F
KREMMLING      FAIR      59  19  21 NW3       30.01F
LEADVILLE      FAIR      53   7  15 S16G23    30.10S
MONARCH PASS   FAIR      41  14  33 SW26G33   30.32F
SALIDA         NOT AVBL
SUNLIGHT       FAIR      46  19  34 CALM      30.16F
WILKERSON PASS FAIR      50  19  29 SW6       30.23F
$$

COZ069>075-241800-
...SAN LUIS VALLEY/SANGRE DE CRISTO MOUNTAINS...

CITY           SKY/WX    TMP DP  RH WIND       PRES   REMARKS
ALAMOSA        FAIR      67  20  16 S17G25    30.04F
LA VETA PASS   FAIR      54  21  28 S13G22    30.20R
SAGUACHE       FAIR      61  21  21 S10G16    30.07F
$$

COZ035-036-038>040-241800-
...NORTHERN COLORADO FRONT RANGE...

CITY           SKY/WX    TMP DP  RH WIND       PRES   REMARKS
DENVER INTL AP PTSUNNY   65  48  54 SE12      29.96F
DMNS CITY PARK   N/A     66  45  47 SE13G20   29.94F
AURORA         PTSUNNY   66  47  51 SE13G23   29.97F
FRONT RANGE AP PTSUNNY   64  46  52 E20G26    29.98F
ERIE MUNI ARPT FAIR      64  46  52 SE3       29.96F
BOULDER MUN AP PTSUNNY   63  45  51 CALM      29.97F
CENTENNIAL     PTSUNNY   65  44  46 SE15G23   29.97F
BROOMFIELD     NOT AVBL
FORT COLLINS   FAIR      63  46  55 S13       29.97F
LONGMONT       PTSUNNY   65  46  50 SE5       29.98F
$$

COZ041-046-047-076>085-087-088-241800-
...PIKES PEAK/PALMER DIVIDE AND SOUTHERN FOOTHILLS...

CITY           SKY/WX    TMP DP  RH WIND       PRES   REMARKS
COLO. SPRINGS  FAIR      66  43  43 E3        30.01F
A. F. ACADEMY  FAIR      63  45  51 S8G16     30.01F
SCHRIEVER AFB  NOT AVBL
ELLICOTT       PTSUNNY  N/A N/A N/A E9G18     29.99F
FALCON         PTSUNNY   63  44  51 SE13      30.04F
FORT CARSON    FAIR      64  46  53 SE2       29.98F
LIMON          CLOUDY    63  53  70 SE17      29.98S
MONUMENT HILL  PTSUNNY   59  43  55 SE12G18   30.04F
TRINIDAD       FAIR      65  45  48 E8        29.97F
$$

COZ042>045-048>051-090-091-241800-
...NORTHEAST COLORADO...

CITY           SKY/WX    TMP DP  RH WIND       PRES   REMARKS
GREELEY ARPT   FAIR      68  46  45 SE13G26   29.97F
AKRON          FAIR      67  50  54 SE22G32   29.95F
BURLINGTON     CLOUDY    64  55  72 SE18      29.94F
WRAY           FAIR      72  50  46 SE16G22   29.93F
STERLING       FAIR      70  50  49 SE12G17   29.93F
HOLYOKE        FAIR      73  52  46 SE14G20   29.94F
FORT MORGAN    FAIR      68  44  41 E18       29.96F
$$

COZ086-089-092>099-241800-
...SOUTHEAST COLORADO...

CITY           SKY/WX    TMP DP  RH WIND       PRES   REMARKS
PUEBLO         FAIR      69  47  45 VRB6      29.94F
LA JUNTA       FAIR      70  50  49 VRB3      29.92F
LAMAR          CLOUDY    70  59  68 E5        29.89S
SPRINGFIELD      N/A     73  54  51 NE6       29.91F
$$




USA.gov is the U.S. government's official web portal to all federal, state and local government web resources and services.